CW8508 Weather Reports


Display with metric or nautical units.
time (UTC)temp
F
wind
direction
speed
MPH
gust
MPH
rain 1hr
in
rain 24hr
in
rain mn
in
humidity
%
barometer
mb
20260507003511 79 250 4.0 9.0 0.00 0.00 0.00 46 1015.0
20260507003011 79 215 4.0 9.0 0.00 0.00 0.00 46 1015.0
20260507002511 79 219 4.0 9.0 0.00 0.00 0.00 45 1014.9
20260507002011 79 232 0.0 7.0 0.00 0.00 0.00 46 1015.0
20260507001511 80 227 6.0 8.0 0.00 0.00 0.00 46 1014.9
20260507001011 80 180 3.0 8.0 0.00 0.00 0.00 46 1014.9
20260507000511 80 237 4.0 7.0 0.00 0.00 0.00 45 1014.9
20260507000011 80 200 3.0 7.0 0.00 0.00 0.00 46 1014.9
20260506235511 80 197 0.0 7.0 0.00 0.00 0.00 46 1014.8
20260506235011 80 233 5.0 9.0 0.00 0.00 0.00 46 1014.8
20260506234510 80 228 1.0 9.0 0.00 0.00 0.00 45 1014.8
20260506234011 80 219 3.0 9.0 0.00 0.00 0.00 45 1014.8
20260506233510 80 215 8.0 9.0 0.00 0.00 0.00 45 1014.8
20260506233010 81 206 5.0 9.0 0.00 0.00 0.00 44 1014.8
20260506232510 81 234 7.0 9.0 0.00 0.00 0.00 44 1014.9
20260506232011 82 228 6.0 9.0 0.00 0.00 0.00 44 1015.0
20260506230510 82 201 6.0 9.0 0.00 0.00 0.00 43 1014.9
20260506230010 82 266 1.0 8.0 0.00 0.00 0.00 42 1014.8
20260506225010 83 213 2.0 7.0 0.00 0.00 0.00 42 1014.8
20260506224510 83 179 1.0 9.0 0.00 0.00 0.00 41 1015.0
20260506224010 83 218 5.0 9.0 0.00 0.00 0.00 41 1015.0
20260506223510 83 279 1.0 8.0 0.00 0.00 0.00 42 1015.0
20260506223010 83 238 4.0 8.0 0.00 0.00 0.00 41 1015.1
20260506222510 82 263 0.0 8.0 0.00 0.00 0.00 40 1015.1
20260506222010 82 228 6.0 9.0 0.00 0.00 0.00 41 1015.2
20260506221511 82 298 0.0 9.0 0.00 0.00 0.00 41 1015.2
20260506221010 82 262 6.0 8.0 0.00 0.00 0.00 41 1015.2
20260506220510 82 202 3.0 9.0 0.00 0.00 0.00 41 1015.3
20260506220010 82 234 4.0 9.0 0.00 0.00 0.00 41 1015.4
20260506215510 82 229 6.0 8.0 0.00 0.00 0.00 42 1015.5
20260506215010 82 231 5.0 9.0 0.00 0.00 0.00 42 1015.6
20260506214510 81 269 2.0 9.0 0.00 0.00 0.00 42 1015.7
20260506214011 81 231 7.0 9.0 0.00 0.00 0.00 43 1015.7
20260506213511 80 200 1.0 8.0 0.00 0.00 0.00 43 1015.8
20260506213010 80 273 1.0 7.0 0.00 0.00 0.00 45 1015.8
20260506212510 79 188 1.0 7.0 0.00 0.00 0.00 44 1016.0
20260506212010 79 242 0.0 7.0 0.00 0.00 0.00 44 1016.0
20260506211510 79 306 3.0 7.0 0.00 0.00 0.00 44 1016.1
20260506210510 78 236 4.0 8.0 0.00 0.00 0.00 45 1016.4
20260506210010 78 200 4.0 8.0 0.00 0.00 0.00 45 1016.4
20260506205510 78 240 3.0 8.0 0.00 0.00 0.00 44 1016.5
20260506205011 78 181 2.0 7.0 0.00 0.00 0.00 45 1016.5
20260506204011 78 194 0.0 7.0 0.00 0.00 0.00 46 1016.6
20260506203010 77 180 5.0 6.0 0.00 0.00 0.00 46 1016.7
20260506202510 77 228 3.0 6.0 0.00 0.00 0.00 46 1016.9
20260506202010 77 198 3.0 5.0 0.00 0.00 0.00 47 1016.9
20260506201511 76 192 0.0 1.0 0.00 0.00 0.00 49 1017.0
20260506201010 76 142 0.0 1.0 0.00 0.00 0.00 48 1016.9
20260506200510 75 193 0.0 5.0 0.00 0.00 0.00 48 1017.0
20260506195510 74 123 3.0 5.0 0.00 0.00 0.00 50 1017.1
20260506195010 74 179 0.0 3.0 0.00 0.00 0.00 49 1017.2
20260506194510 74 130 0.0 4.0 0.00 0.00 0.00 49 1017.3
20260506194010 74 153 0.0 4.0 0.00 0.00 0.00 50 1017.4
20260506193510 74 202 0.0 6.0 0.00 0.00 0.00 49 1017.4
20260506193011 74 205 0.0 6.0 0.00 0.00 0.00 50 1017.5
20260506192510 74 219 2.0 7.0 0.00 0.00 0.00 49 1017.5
20260506192010 74 184 0.0 7.0 0.00 0.00 0.00 49 1017.6
20260506191511 74 217 0.0 3.0 0.00 0.00 0.00 50 1017.7
20260506191011 73 213 0.0 5.0 0.00 0.00 0.00 52 1017.8
20260506190010 73 271 0.0 2.0 0.00 0.00 0.00 51 1017.8
20260506185511 72 209 0.0 0.0 0.00 0.00 0.00 52 1017.9
20260506185011 72 213 0.0 0.0 0.00 0.00 0.00 52 1018.0
20260506184510 72 180 0.0 0.0 0.00 0.00 0.00 53 1018.0
20260506184010 72 94 0.0 0.0 0.00 0.00 0.00 53 1018.0
20260506183510 71 184 0.0 0.0 0.00 0.00 0.00 53 1018.1
20260506183011 71 232 0.0 0.0 0.00 0.00 0.00 54 1018.1
20260506182011 70 157 0.0 0.0 0.00 0.00 0.00 54 1018.2
20260506181510 70 267 0.0 0.0 0.00 0.00 0.00 54 1018.2
20260506181011 70 209 0.0 0.0 0.00 0.00 0.00 54 1018.2
20260506180510 70 188 0.0 0.0 0.00 0.00 0.00 54 1018.2
20260506175511 69 166 0.0 0.0 0.00 0.00 0.00 57 1018.2
20260506175010 69 161 0.0 0.0 0.00 0.00 0.00 57 1018.2
20260506174511 69 161 0.0 0.0 0.00 0.00 0.00 57 1018.2
20260506172511 68 269 0.0 0.0 0.00 0.00 0.00 58 1018.3
20260506172011 68 270 0.0 0.0 0.00 0.00 0.00 59 1018.3
20260506171511 68 159 0.0 0.0 0.00 0.00 0.00 60 1018.3
20260506171011 67 136 0.0 0.0 0.00 0.00 0.00 60 1018.3
20260506170510 67 105 0.0 0.0 0.00 0.00 0.00 61 1018.2
20260506170011 67 113 0.0 0.0 0.00 0.00 0.00 60 1018.2
20260506165510 66 0.0 0.0 0.00 0.00 0.00 62 1018.2
20260506165010 66 0.0 0.0 0.00 0.00 0.00 62 1018.2
20260506164511 66 0.0 0.0 0.00 0.00 0.00 61 1018.2
20260506164010 66 0.0 0.0 0.00 0.00 0.00 62 1018.3
20260506163510 65 0.0 0.0 0.00 0.00 0.00 64 1018.3
20260506163011 65 0.0 0.0 0.00 0.00 0.00 65 1018.2
20260506162010 64 0.0 0.0 0.00 0.00 0.00 64 1018.3
20260506161510 64 0.0 0.0 0.00 0.00 0.00 66 1018.3
20260506161010 64 0.0 0.0 0.00 0.00 0.00 66 1018.3
20260506144010 52 0.0 0.0 0.00 0.00 0.00 89 1018.4
20260506143511 52 0.0 0.0 0.00 0.00 0.00 89 1018.4
20260506143010 51 0.0 0.0 0.00 0.00 0.00 89 1018.3
20260506142510 51 0.0 0.0 0.00 0.00 0.00 88 1018.3
20260506142011 51 0.0 0.0 0.00 0.00 0.00 88 1018.3
20260506141511 51 0.0 0.0 0.00 0.00 0.00 88 1018.2
20260506141011 50 0.0 0.0 0.00 0.00 0.00 88 1018.3
20260506140510 50 0.0 0.0 0.00 0.00 0.00 88 1018.2
20260506140010 50 0.0 0.0 0.00 0.00 0.00 87 1018.2
20260506135511 50 0.0 0.0 0.00 0.00 0.00 87 1018.1
20260506135011 50 0.0 0.0 0.00 0.00 0.00 87 1018.1
20260506134510 50 0.0 0.0 0.00 0.00 0.00 87 1018.1
20260506134011 50 0.0 0.0 0.00 0.00 0.00 87 1018.1
20260506133511 50 0.0 0.0 0.00 0.00 0.00 87 1018.0
20260506133011 50 0.0 0.0 0.00 0.00 0.00 87 1018.0
20260506132511 50 0.0 0.0 0.00 0.00 0.00 87 1018.0
20260506132011 50 0.0 0.0 0.00 0.00 0.00 87 1018.0
20260506131511 50 0.0 0.0 0.00 0.00 0.00 87 1017.9
20260506131011 50 0.0 0.0 0.00 0.00 0.00 87 1017.8
20260506130510 50 0.0 0.0 0.00 0.00 0.00 87 1017.8
20260506130011 50 0.0 0.0 0.00 0.00 0.00 87 1017.8
20260506125511 50 0.0 0.0 0.00 0.00 0.00 87 1017.7
20260506125011 50 0.0 0.0 0.00 0.00 0.00 87 1017.7
20260506124511 50 0.0 0.0 0.00 0.00 0.00 87 1017.6
20260506124010 50 0.0 0.0 0.00 0.00 0.00 87 1017.6
20260506123511 50 0.0 0.0 0.00 0.00 0.00 87 1017.6
20260506123011 50 0.0 0.0 0.00 0.00 0.00 87 1017.5
20260506122011 51 0.0 0.0 0.00 0.00 0.00 87 1017.3
20260506121511 51 0.0 0.0 0.00 0.00 0.00 86 1017.3
20260506121010 51 0.0 0.0 0.00 0.00 0.00 86 1017.3
20260506120511 51 0.0 0.0 0.00 0.00 0.00 86 1017.3
20260506120010 51 0.0 0.0 0.00 0.00 0.00 86 1017.2
20260506115510 51 0.0 0.0 0.00 0.00 0.00 86 1017.2
20260506114510 51 0.0 0.0 0.00 0.00 0.00 86 1017.3
20260506113511 51 0.0 0.0 0.00 0.00 0.00 86 1017.2
20260506113011 51 0.0 0.0 0.00 0.01 0.00 86 1017.2
20260506112511 51 0.0 0.0 0.00 0.01 0.00 85 1017.1
20260506112011 51 0.0 0.0 0.00 0.01 0.00 85 1017.1
20260506111010 51 0.0 0.0 0.00 0.02 0.00 85 1017.2
20260506110011 52 0.0 0.0 0.00 0.02 0.00 86 1017.1
20260506105511 52 0.0 0.0 0.00 0.02 0.00 86 1017.0
20260506105010 52 0.0 0.0 0.00 0.02 0.00 86 1017.0
20260506104511 52 0.0 0.0 0.00 0.02 0.00 85 1017.0
20260506104010 52 0.0 0.0 0.00 0.02 0.00 85 1017.0
20260506103511 52 0.0 0.0 0.00 0.02 0.00 86 1017.0
20260506103011 52 0.0 0.0 0.00 0.02 0.00 85 1017.1
20260506102511 52 0.0 0.0 0.00 0.02 0.00 85 1017.0
20260506101511 52 0.0 0.0 0.00 0.02 0.00 85 1017.0
20260506101011 52 0.0 0.0 0.00 0.03 0.00 85 1017.1
20260506100511 52 0.0 0.0 0.00 0.03 0.00 85 1017.1
20260506100010 52 0.0 0.0 0.00 0.04 0.00 84 1017.2
20260506095511 52 0.0 0.0 0.00 0.04 0.00 84 1017.2
20260506095011 52 0.0 0.0 0.00 0.04 0.00 84 1017.2
20260506094511 52 0.0 0.0 0.00 0.05 0.00 84 1017.0
20260506094010 53 0.0 0.0 0.00 0.05 0.00 84 1017.1
20260506093011 53 0.0 0.0 0.00 0.05 0.00 84 1017.0
20260506092511 53 0.0 0.0 0.00 0.06 0.00 84 1017.1
20260506092011 53 0.0 0.0 0.00 0.06 0.00 83 1017.1
20260506091511 53 0.0 0.0 0.00 0.06 0.00 83 1017.2
20260506091011 53 0.0 0.0 0.00 0.06 0.00 83 1017.3
20260506085511 53 0.0 0.0 0.00 0.06 0.00 82 1017.4
20260506084511 53 0.0 0.0 0.00 0.06 0.00 82 1017.4
20260506084011 53 0.0 0.0 0.00 0.06 0.00 82 1017.5
20260506083511 53 0.0 0.0 0.00 0.06 0.00 82 1017.5
20260506083011 53 0.0 0.0 0.00 0.06 0.00 81 1017.5
20260506082511 54 0.0 0.0 0.00 0.06 0.00 81 1017.5
20260506082011 54 0.0 0.0 0.00 0.06 0.00 81 1017.5
20260506081511 54 0.0 0.0 0.00 0.06 0.00 81 1017.6
20260506081011 54 0.0 0.0 0.00 0.06 0.00 81 1017.6
20260506080510 54 0.0 0.0 0.00 0.06 0.00 81 1017.6
20260506073511 54 0.0 0.0 0.00 0.06 0.00 79 1017.7
20260506072510 54 0.0 0.0 0.00 0.06 0.00 79 1017.7
20260506072011 54 0.0 0.0 0.00 0.06 0.00 79 1017.7
20260506071011 55 0.0 0.0 0.00 0.06 0.00 79 1017.6
20260506062011 56 0.0 0.0 0.00 0.06 0.06 78 1016.9
20260506061511 56 0.0 0.0 0.00 0.06 0.06 78 1016.9
20260506061011 56 0.0 0.0 0.00 0.06 0.06 78 1016.9
20260506060511 56 0.0 0.0 0.00 0.06 0.06 78 1016.9
20260506050511 57 0.0 0.0 0.00 0.06 0.06 74 1016.5
20260506045011 57 0.0 0.0 0.00 0.06 0.06 73 1016.3
20260506044011 57 0.0 0.0 0.00 0.06 0.06 72 1016.2
20260506043511 57 0.0 0.0 0.00 0.06 0.06 72 1016.2
20260506043011 58 0.0 0.0 0.00 0.06 0.06 72 1016.1
20260506042511 58 0.0 0.0 0.00 0.06 0.06 71 1016.1
20260506042011 58 0.0 0.0 0.00 0.06 0.06 70 1015.9
20260506041511 58 0.0 0.0 0.00 0.06 0.06 70 1015.8
20260506041011 58 0.0 0.0 0.00 0.06 0.06 70 1015.7
20260506040511 58 0.0 0.0 0.00 0.06 0.06 69 1015.6
20260506040011 58 0.0 0.0 0.00 0.06 0.06 69 1015.6
20260506035511 59 0.0 0.0 0.00 0.06 0.06 68 1015.5
20260506035011 59 0.0 0.0 0.00 0.06 0.06 68 1015.4
20260506034511 59 0.0 0.0 0.00 0.06 0.06 68 1015.3
20260506033511 59 0.0 0.0 0.00 0.06 0.06 67 1015.3
20260506032010 60 0.0 0.0 0.00 0.06 0.06 66 1015.1
20260506031511 60 0.0 0.0 0.00 0.06 0.06 66 1015.0
20260506031011 60 0.0 0.0 0.00 0.06 0.06 66 1015.0
20260506030511 60 0.0 0.0 0.00 0.06 0.06 65 1015.0
20260506030011 61 0.0 0.0 0.00 0.06 0.06 64 1014.9
20260506025011 62 0.0 0.0 0.00 0.06 0.06 62 1014.6
20260506024511 62 0.0 0.0 0.00 0.06 0.06 62 1014.6
20260506024011 62 0.0 0.0 0.00 0.06 0.06 61 1014.5
20260506023511 62 0.0 0.0 0.00 0.06 0.06 61 1014.4
20260506023011 63 0.0 0.0 0.00 0.06 0.06 61 1014.4
20260506022011 64 304 0.0 0.0 0.00 0.06 0.06 60 1014.4
20260506021511 64 304 0.0 0.0 0.00 0.06 0.06 59 1014.2
20260506021011 64 304 0.0 0.0 0.00 0.06 0.06 58 1014.1
20260506020011 65 304 0.0 0.0 0.00 0.06 0.06 57 1014.1
20260506015511 65 304 0.0 0.0 0.00 0.06 0.06 57 1014.1
20260506015011 65 304 0.0 0.0 0.00 0.06 0.06 56 1014.1
20260506014511 65 304 0.0 0.0 0.00 0.06 0.06 54 1014.0
20260506014011 65 304 0.0 0.0 0.00 0.06 0.06 53 1014.0
20260506013511 66 304 0.0 0.0 0.00 0.06 0.06 53 1014.0
20260506013011 66 272 0.0 0.0 0.00 0.06 0.06 52 1013.9
20260506012511 66 272 0.0 0.0 0.00 0.06 0.06 51 1013.9
20260506012011 66 272 0.0 0.0 0.00 0.06 0.06 50 1013.8
20260506011511 67 272 0.0 0.0 0.00 0.06 0.06 50 1013.8
20260506011011 66 289 0.0 0.0 0.00 0.06 0.06 50 1013.8
20260506010511 66 289 0.0 0.0 0.00 0.06 0.06 49 1013.8
20260506010011 66 290 0.0 0.0 0.00 0.06 0.06 50 1013.9
20260506005513 66 289 0.0 0.0 0.00 0.06 0.06 51 1013.9
20260506004511 66 264 0.0 0.0 0.00 0.06 0.06 52 1014.0
20260506004011 66 264 0.0 0.0 0.00 0.06 0.06 51 1013.8